����,���ϕ���(m/s),���ϕ���,�ő�u�ԕ���(m/s),�ő啗��������,�C��(��),���x(%),10���Ԉړ��ώZ�J��(mm),1���Ԉړ��ώZ�J��(mm),���J��(mm),�݌v�J��(mm),����(���ώZ)(MJ/m2),����(���ώZ)(min),���n�C��(hPa),�C�ʋC��(hPa)
2022-08-01T00:00:00+09:00,1.5,��,4.6,��,27.5,83,0,0,0,0,15.56,353,1001.8,1015.1
2022-08-01T00:01:00+09:00,1.6,��,4.6,��,27.5,83.2,0,0,0,0,0,0,1001.8,1015.1
2022-08-01T00:02:00+09:00,1.7,��,4.6,��,27.5,83.1,0,0,0,0,0,0,1001.8,1015.1
2022-08-01T00:03:00+09:00,1.7,��,4.6,��,27.5,83,0,0,0,0,0,0,1001.8,1015.1
2022-08-01T00:04:00+09:00,1.8,��,4.6,��,27.5,82.9,0,0,0,0,0,0,1001.8,1015.1
2022-08-01T00:05:00+09:00,1.8,��,4.6,��,27.4,83,0,0,0,0,0,0,1001.8,1015.1
2022-08-01T00:06:00+09:00,1.9,��,4.6,��,27.4,83.2,0,0,0,0,0,0,1001.8,1015.1
2022-08-01T00:07:00+09:00,1.9,��,4.6,��,27.4,83.4,0,0,0,0,0,0,1001.8,1015.1
2022-08-01T00:08:00+09:00,1.9,��,4.6,��,27.4,83.4,0,0,0,0,0,0,1001.8,1015.1
2022-08-01T00:09:00+09:00,1.9,��,5,��쐼,27.4,83.6,0,0,0,0,0,0,1001.8,1015.1
2022-08-01T00:10:00+09:00,2,��,5.2,��,27.4,83.7,0,0,0,0,0,0,1001.8,1015.1
2022-08-01T00:11:00+09:00,1.9,��,5.2,��,27.4,83.8,0,0,0,0,0,0,1001.8,1015.1
2022-08-01T00:12:00+09:00,1.9,��,5.2,��,27.4,84,0,0,0,0,0,0,1001.8,1015.1
2022-08-01T00:13:00+09:00,1.9,��,5.2,��,27.4,84.1,0,0,0,0,0,0,1001.8,1015.1
2022-08-01T00:14:00+09:00,2,��,5.2,��,27.4,84.1,0,0,0,0,0,0,1001.8,1015.1
2022-08-01T00:15:00+09:00,2,��,5.2,��,27.3,84.2,0,0,0,0,0,0,1001.8,1015.1
2022-08-01T00:16:00+09:00,2,��,5.2,��,27.4,84.4,0,0,0,0,0,0,1001.7,1015
2022-08-01T00:17:00+09:00,2.2,��,5.4,��,27.4,84.4,0,0,0,0,0,0,1001.7,1015
2022-08-01T00:18:00+09:00,2.4,��,5.4,��,27.3,84.3,0,0,0,0,0,0,1001.7,1015
2022-08-01T00:19:00+09:00,2.4,��,5.4,��,27.3,84.5,0,0,0,0,0,0,1001.7,1015
2022-08-01T00:20:00+09:00,2.5,��,5.4,��,27.3,84.6,0,0,0,0,0,0,1001.7,1015
2022-08-01T00:21:00+09:00,2.7,��,5.4,��,27.3,84.8,0,0,0,0,0,0,1001.7,1015
2022-08-01T00:22:00+09:00,2.8,��,5.4,��,27.3,84.9,0,0,0,0,0,0,1001.7,1015
2022-08-01T00:23:00+09:00,2.8,��,5.4,��,27.3,84.8,0,0,0,0,0,0,1001.7,1015
2022-08-01T00:24:00+09:00,2.8,��,5.4,��,27.3,84.7,0,0,0,0,0,0,1001.7,1015
2022-08-01T00:25:00+09:00,2.9,��,5.4,��,27.3,84.9,0,0,0,0,0,0,1001.7,1015
2022-08-01T00:26:00+09:00,3,��,5.4,��,27.3,84.8,0,0,0,0,0,0,1001.7,1015
2022-08-01T00:27:00+09:00,3,��,4.9,��쐼,27.2,85,0,0,0,0,0,0,1001.7,1015
2022-08-01T00:28:00+09:00,2.8,��,4.7,��,27.3,85.2,0,0,0,0,0,0,1001.7,1015
2022-08-01T00:29:00+09:00,2.6,��,4.7,��,27.3,85.2,0,0,0,0,0,0,1001.6,1014.9
2022-08-01T00:30:00+09:00,2.5,��,4.7,��,27.3,85.2,0,0,0,0,0,0,1001.7,1015
2022-08-01T00:31:00+09:00,2.4,��,4.7,��,27.3,85.3,0,0,0,0,0,0,1001.6,1014.9
2022-08-01T00:32:00+09:00,2.4,��,4.7,��,27.2,85.3,0,0,0,0,0,0,1001.6,1014.9
2022-08-01T00:33:00+09:00,2.4,��,4.7,��,27.3,85.4,0,0,0,0,0,0,1001.6,1014.9
2022-08-01T00:34:00+09:00,2.3,��,4.7,��,27.4,85.5,0,0,0,0,0,0,1001.6,1014.9
2022-08-01T00:35:00+09:00,2.2,��,4.6,��쐼,27.3,85.2,0,0,0,0,0,0,1001.6,1014.9
2022-08-01T00:36:00+09:00,2,��,4.6,��쐼,27.3,85.1,0,0,0,0,0,0,1001.6,1014.9
2022-08-01T00:37:00+09:00,1.9,��,4.6,��쐼,27.3,85.1,0,0,0,0,0,0,1001.6,1014.9
2022-08-01T00:38:00+09:00,2,��,4.6,��쐼,27.3,84.9,0,0,0,0,0,0,1001.5,1014.8
2022-08-01T00:39:00+09:00,2.1,��,4.6,��쐼,27.3,85,0,0,0,0,0,0,1001.6,1014.9
2022-08-01T00:40:00+09:00,2.1,��,4.6,��쐼,27.3,85,0,0,0,0,0,0,1001.5,1014.8
2022-08-01T00:41:00+09:00,2.2,��,4.6,��쐼,27.3,85.1,0,0,0,0,0,0,1001.5,1014.8
2022-08-01T00:42:00+09:00,2.2,��,5.4,��,27.3,85.2,0,0,0,0,0,0,1001.5,1014.8
2022-08-01T00:43:00+09:00,2.3,��,5.4,��,27.3,85.2,0,0,0,0,0,0,1001.5,1014.8
2022-08-01T00:44:00+09:00,2.5,��,5.4,��,27.3,85.4,0,0,0,0,0,0,1001.5,1014.8
2022-08-01T00:45:00+09:00,2.6,��,5.4,��,27.3,85.5,0,0,0,0,0,0,1001.5,1014.8
2022-08-01T00:46:00+09:00,2.7,��,5.4,��,27.3,85.5,0,0,0,0,0,0,1001.5,1014.8
2022-08-01T00:47:00+09:00,2.8,��,5.4,��,27.3,85.7,0,0,0,0,0,0,1001.5,1014.8
2022-08-01T00:48:00+09:00,2.9,��,5.4,��,27.2,85.7,0,0,0,0,0,0,1001.5,1014.8
2022-08-01T00:49:00+09:00,2.9,��,5.4,��,27.2,85.9,0,0,0,0,0,0,1001.5,1014.8
2022-08-01T00:50:00+09:00,2.9,��,5.4,��,27.2,86,0,0,0,0,0,0,1001.5,1014.8
2022-08-01T00:51:00+09:00,2.9,��,5.4,��,27.2,86.1,0,0,0,0,0,0,1001.5,1014.8
2022-08-01T00:52:00+09:00,2.7,��,5.1,��,27.2,86.3,0,0,0,0,0,0,1001.5,1014.8
2022-08-01T00:53:00+09:00,2.6,��,5.1,��,27.2,86.4,0,0,0,0,0,0,1001.5,1014.8
2022-08-01T00:54:00+09:00,2.6,��,5.5,��쓌,27.3,86.4,0,0,0,0,0,0,1001.5,1014.8
2022-08-01T00:55:00+09:00,2.6,��,5.5,��쓌,27.2,86.2,0,0,0,0,0,0,1001.5,1014.8
2022-08-01T00:56:00+09:00,2.7,��,5.5,��쓌,27.2,86.4,0,0,0,0,0,0,1001.6,1014.9
2022-08-01T00:57:00+09:00,2.5,��,5.5,��쓌,27.2,86.6,0,0,0,0,0,0,1001.6,1014.9
2022-08-01T00:58:00+09:00,2.5,��,5.5,��쓌,27.1,86.8,0,0,0,0,0,0,1001.6,1014.9
2022-08-01T00:59:00+09:00,2.4,��,5.5,��쓌,27.1,86.9,0,0,0,0,0,0,1001.6,1014.9
2022-08-01T01:00:00+09:00,2.5,��,5.5,��쓌,27.1,87.1,0,0,0,0,0,0,1001.6,1014.9
2022-08-01T01:01:00+09:00,2.4,��,5.5,��쓌,27.1,87.5,0,0,0,0,0,0,1001.6,1014.9
2022-08-01T01:02:00+09:00,2.6,��,5.5,��쓌,27.1,87.6,0,0,0,0,0,0,1001.6,1014.9
2022-08-01T01:03:00+09:00,2.7,��,5.5,��쓌,27.1,87.7,0,0,0,0,0,0,1001.6,1014.9
2022-08-01T01:04:00+09:00,2.6,��,4.8,��쓌,27.1,87.8,0,0,0,0,0,0,1001.6,1014.9
2022-08-01T01:05:00+09:00,2.5,��,4.6,��,27.1,87.9,0,0,0,0,0,0,1001.6,1014.9
2022-08-01T01:06:00+09:00,2.4,��,4.6,��,27.1,87.9,0,0,0,0,0,0,1001.6,1014.9
2022-08-01T01:07:00+09:00,2.4,��,4.6,��,27.1,87.8,0,0,0,0,0,0,1001.5,1014.8
2022-08-01T01:08:00+09:00,2.3,��,4.6,��,27.1,87.8,0,0,0,0,0,0,1001.6,1014.9
2022-08-01T01:09:00+09:00,2.3,��,4,��,27.1,87.9,0,0,0,0,0,0,1001.6,1014.9
2022-08-01T01:10:00+09:00,2.3,��,4.4,��,27.1,87.9,0,0,0,0,0,0,1001.6,1014.9
2022-08-01T01:11:00+09:00,2.4,��,4.4,��,27.1,88,0,0,0,0,0,0,1001.6,1014.9
2022-08-01T01:12:00+09:00,2.3,��,4.4,��,27.1,88,0,0,0,0,0,0,1001.6,1014.9
2022-08-01T01:13:00+09:00,2.3,��,4.4,��,27,87.9,0,0,0,0,0,0,1001.6,1014.9
2022-08-01T01:14:00+09:00,2.3,��,4.4,��,27.1,88.1,0,0,0,0,0,0,1001.5,1014.8
2022-08-01T01:15:00+09:00,2.3,��,4.9,��,27,88.1,0,0,0,0,0,0,1001.5,1014.8
2022-08-01T01:16:00+09:00,2.4,��,4.9,��,27.1,88.1,0,0,0,0,0,0,1001.6,1014.9
2022-08-01T01:17:00+09:00,2.6,��,4.9,��,27.1,88.2,0,0,0,0,0,0,1001.5,1014.8
2022-08-01T01:18:00+09:00,2.6,��,4.9,��,27.1,88.2,0,0,0,0,0,0,1001.5,1014.8
2022-08-01T01:19:00+09:00,2.7,��,4.9,��,27.1,88.2,0,0,0,0,0,0,1001.5,1014.8
2022-08-01T01:20:00+09:00,2.6,��,4.9,��,27.1,88.3,0,0,0,0,0,0,1001.5,1014.8
2022-08-01T01:21:00+09:00,2.6,��,4.9,��,27.1,88.4,0,0,0,0,0,0,1001.5,1014.8
2022-08-01T01:22:00+09:00,2.6,��,4.9,��,27.1,88.6,0,0,0,0,0,0,1001.5,1014.8
2022-08-01T01:23:00+09:00,2.6,��,4.9,��,27.1,88.5,0,0,0,0,0,0,1001.6,1014.9
2022-08-01T01:24:00+09:00,2.7,��,4.9,��,27.1,88.6,0,0,0,0,0,0,1001.6,1014.9
2022-08-01T01:25:00+09:00,2.7,��,4.6,��쓌,27.1,88.7,0,0,0,0,0,0,1001.6,1014.9
2022-08-01T01:26:00+09:00,2.7,��,4.6,��쓌,27,88.7,0,0,0,0,0,0,1001.6,1014.9
2022-08-01T01:27:00+09:00,2.6,��,4.6,��쓌,27,88.7,0,0,0,0,0,0,1001.6,1014.9
2022-08-01T01:28:00+09:00,2.6,��,4.6,��쓌,27,88.8,0,0,0,0,0,0,1001.6,1014.9
2022-08-01T01:29:00+09:00,2.6,��,4.6,��쓌,27,88.9,0,0,0,0,0,0,1001.6,1014.9
2022-08-01T01:30:00+09:00,2.6,��,4.6,��쓌,27,88.9,0,0,0,0,0,0,1001.6,1014.9
2022-08-01T01:31:00+09:00,2.7,��,4.6,��쓌,27,89,0,0,0,0,0,0,1001.6,1014.9
2022-08-01T01:32:00+09:00,2.6,��,4.6,��쓌,27.1,89,0,0,0,0,0,0,1001.6,1014.9
2022-08-01T01:33:00+09:00,2.6,��,4.2,��,27.1,89,0,0,0,0,0,0,1001.6,1014.9
2022-08-01T01:34:00+09:00,2.7,��,4.8,��,27,88.8,0,0,0,0,0,0,1001.6,1014.9
2022-08-01T01:35:00+09:00,2.8,��,5.4,��,27,88.8,0,0,0,0,0,0,1001.6,1014.9
2022-08-01T01:36:00+09:00,2.8,��,5.4,��,27,89,0,0,0,0,0,0,1001.6,1014.9
2022-08-01T01:37:00+09:00,2.9,��,5.4,��,27,89,0,0,0,0,0,0,1001.5,1014.8
2022-08-01T01:38:00+09:00,3.1,��,5.4,��,26.9,89.1,0,0,0,0,0,0,1001.5,1014.8
2022-08-01T01:39:00+09:00,3.1,��,5.4,��,26.9,89.2,0,0,0,0,0,0,1001.5,1014.8
2022-08-01T01:40:00+09:00,3.1,��,5.4,��,27,89.4,0,0,0,0,0,0,1001.5,1014.8
2022-08-01T01:41:00+09:00,3.2,��,5.4,��,27,89.4,0,0,0,0,0,0,1001.5,1014.8
2022-08-01T01:42:00+09:00,3.3,��,5.4,��,27,89.5,0,0,0,0,0,0,1001.5,1014.8
2022-08-01T01:43:00+09:00,3.3,��,5.4,��,26.9,89.4,0,0,0,0,0,0,1001.5,1014.8
2022-08-01T01:44:00+09:00,3.3,��,5.4,��,26.9,89.4,0,0,0,0,0,0,1001.5,1014.8
2022-08-01T01:45:00+09:00,3.2,��,5.2,��,27,89.4,0,0,0,0,0,0,1001.6,1014.9
2022-08-01T01:46:00+09:00,3.2,��,5.2,��,27,89.4,0,0,0,0,0,0,1001.6,1014.9
2022-08-01T01:47:00+09:00,3.2,��,5.2,��,26.9,89.3,0,0,0,0,0,0,1001.6,1014.9
2022-08-01T01:48:00+09:00,3,��,5.1,��,26.9,89.4,0,0,0,0,0,0,1001.6,1014.9
2022-08-01T01:49:00+09:00,3.1,��,5.1,��,26.9,89.3,0,0,0,0,0,0,1001.6,1014.9
2022-08-01T01:50:00+09:00,3.1,��,5.1,��,26.8,89.5,0,0,0,0,0,0,1001.6,1014.9
2022-08-01T01:51:00+09:00,3,��,5.1,��,26.8,89.8,0,0,0,0,0,0,1001.6,1014.9
2022-08-01T01:52:00+09:00,3.1,��,5.1,��,26.8,89.8,0,0,0,0,0,0,1001.6,1014.9
2022-08-01T01:53:00+09:00,3.2,��,5.1,��,26.8,89.9,0,0,0,0,0,0,1001.5,1014.8
2022-08-01T01:54:00+09:00,3.2,��쐼,4.9,��,26.8,90.1,0,0,0,0,0,0,1001.6,1014.9
2022-08-01T01:55:00+09:00,3.1,��쐼,4.9,��,27,90.4,0,0,0,0,0,0,1001.6,1014.9
2022-08-01T01:56:00+09:00,3,��,4.9,��,27,90.1,0,0,0,0,0,0,1001.6,1014.9
2022-08-01T01:57:00+09:00,3,��,4.9,��,26.9,89.7,0,0,0,0,0,0,1001.6,1014.9
2022-08-01T01:58:00+09:00,3.1,��,5.2,��쐼,26.9,89.8,0,0,0,0,0,0,1001.5,1014.8
2022-08-01T01:59:00+09:00,3.1,��쐼,5.2,��쐼,26.8,89.9,0,0,0,0,0,0,1001.5,1014.8
2022-08-01T02:00:00+09:00,3.1,��쐼,5.2,��쐼,26.9,90.1,0,0,0,0,0,0,1001.5,1014.8
2022-08-01T02:01:00+09:00,3.1,��쐼,5.2,��쐼,26.9,90.2,0,0,0,0,0,0,1001.5,1014.8
2022-08-01T02:02:00+09:00,3.1,��쐼,5.2,��쐼,26.9,90.3,0,0,0,0,0,0,1001.5,1014.8
2022-08-01T02:03:00+09:00,3,��,5.2,��쐼,26.9,90.1,0,0,0,0,0,0,1001.5,1014.8
2022-08-01T02:04:00+09:00,2.9,��,5.2,��쐼,26.9,90.2,0,0,0,0,0,0,1001.5,1014.8
2022-08-01T02:05:00+09:00,2.9,��,5.2,��쐼,26.9,90.1,0,0,0,0,0,0,1001.5,1014.8
2022-08-01T02:06:00+09:00,2.9,��,5.2,��쐼,26.8,90.1,0,0,0,0,0,0,1001.5,1014.8
2022-08-01T02:07:00+09:00,2.8,��,5.2,��쐼,26.8,90.1,0,0,0,0,0,0,1001.5,1014.8
2022-08-01T02:08:00+09:00,2.7,��,4.9,��쐼,26.8,90.3,0,0,0,0,0,0,1001.5,1014.8
2022-08-01T02:09:00+09:00,2.6,��,4.3,��,26.8,90.5,0,0,0,0,0,0,1001.6,1014.9
2022-08-01T02:10:00+09:00,2.6,��,4.4,��,26.8,90.7,0,0,0,0,0,0,1001.6,1014.9
2022-08-01T02:11:00+09:00,2.6,��,4.4,��,26.8,90.6,0,0,0,0,0,0,1001.6,1014.9
2022-08-01T02:12:00+09:00,2.6,��,4.5,��,26.8,90.7,0,0,0,0,0,0,1001.6,1014.9
2022-08-01T02:13:00+09:00,2.5,��,4.5,��,26.7,90.8,0,0,0,0,0,0,1001.6,1014.9
2022-08-01T02:14:00+09:00,2.6,��,4.5,��,26.7,90.9,0,0,0,0,0,0,1001.6,1014.9
2022-08-01T02:15:00+09:00,2.8,��,4.6,��쐼,26.7,91.1,0,0,0,0,0,0,1001.6,1014.9
2022-08-01T02:16:00+09:00,3,��,5.4,��,26.7,91.3,0,0,0,0,0,0,1001.6,1014.9
2022-08-01T02:17:00+09:00,3.1,��,5.4,��,26.7,91.5,0,0,0,0,0,0,1001.6,1014.9
2022-08-01T02:18:00+09:00,3.2,��,5.4,��,26.7,91.5,0,0,0,0,0,0,1001.6,1014.9
2022-08-01T02:19:00+09:00,3.4,��,5.6,��,26.7,91.5,0,0,0,0,0,0,1001.6,1014.9
2022-08-01T02:20:00+09:00,3.5,��,5.6,��,26.8,91.5,0,0,0,0,0,0,1001.6,1014.9
2022-08-01T02:21:00+09:00,3.6,��,5.6,��,26.8,91.5,0,0,0,0,0,0,1001.5,1014.8
2022-08-01T02:22:00+09:00,3.6,��,5.6,��,26.8,91.3,0,0,0,0,0,0,1001.6,1014.9
2022-08-01T02:23:00+09:00,3.6,��,5.6,��,26.8,91.2,0,0,0,0,0,0,1001.6,1014.9
2022-08-01T02:24:00+09:00,3.6,��,5.6,��,26.8,91.1,0,0,0,0,0,0,1001.6,1014.9
2022-08-01T02:25:00+09:00,3.5,��,5.6,��,26.7,91,0,0,0,0,0,0,1001.6,1014.9
2022-08-01T02:26:00+09:00,3.5,��,5.6,��,26.7,91.2,0,0,0,0,0,0,1001.6,1014.9
2022-08-01T02:27:00+09:00,3.5,��,5.7,��,26.8,91.5,0,0,0,0,0,0,1001.6,1014.9
2022-08-01T02:28:00+09:00,3.6,��,5.7,��,26.8,91.2,0,0,0,0,0,0,1001.6,1014.9
2022-08-01T02:29:00+09:00,3.4,��,5.7,��,26.8,91,0,0,0,0,0,0,1001.6,1014.9
2022-08-01T02:30:00+09:00,3.4,��,5.7,��,26.9,91,0,0,0,0,0,0,1001.6,1014.9
2022-08-01T02:31:00+09:00,3.3,��,5.7,��,26.9,90.8,0,0,0,0,0,0,1001.6,1014.9
2022-08-01T02:32:00+09:00,3.3,��,5.7,��,26.9,90.4,0,0,0,0,0,0,1001.6,1014.9
2022-08-01T02:33:00+09:00,3.3,��,5.7,��,26.8,90.4,0,0,0,0,0,0,1001.6,1014.9
2022-08-01T02:34:00+09:00,3.3,��,5.7,��,26.7,90.4,0,0,0,0,0,0,1001.6,1014.9
2022-08-01T02:35:00+09:00,3.2,��,5.7,��,26.8,90.8,0,0,0,0,0,0,1001.6,1014.9
2022-08-01T02:36:00+09:00,3.1,��,5.7,��,26.8,90.9,0,0,0,0,0,0,1001.6,1014.9
2022-08-01T02:37:00+09:00,2.7,��,5.2,��,26.7,90.8,0,0,0,0,0,0,1001.6,1014.9
2022-08-01T02:38:00+09:00,2.5,��,5.2,��,26.7,91,0,0,0,0,0,0,1001.6,1014.9
2022-08-01T02:39:00+09:00,2.5,��,5.2,��,26.7,91.1,0,0,0,0,0,0,1001.6,1014.9
2022-08-01T02:40:00+09:00,2.4,��,4.5,��쐼,26.7,91.3,0,0,0,0,0,0,1001.6,1014.9
2022-08-01T02:41:00+09:00,2.4,��,4.3,��,26.7,91.4,0,0,0,0,0,0,1001.6,1014.9
2022-08-01T02:42:00+09:00,2.4,��,4.3,��,26.7,91.4,0,0,0,0,0,0,1001.6,1014.9
2022-08-01T02:43:00+09:00,2.4,��,4.3,��,26.8,91.5,0,0,0,0,0,0,1001.6,1014.9
2022-08-01T02:44:00+09:00,2.4,��,4.3,��,26.8,91.5,0,0,0,0,0,0,1001.6,1014.9
2022-08-01T02:45:00+09:00,2.6,��,4.7,��,26.7,91.3,0,0,0,0,0,0,1001.6,1014.9
2022-08-01T02:46:00+09:00,2.6,��,4.7,��,26.7,91.2,0,0,0,0,0,0,1001.6,1014.9
2022-08-01T02:47:00+09:00,2.9,��,6,��,26.7,91.4,0,0,0,0,0,0,1001.6,1014.9
2022-08-01T02:48:00+09:00,3,��,6,��,26.7,91.6,0,0,0,0,0,0,1001.6,1014.9
2022-08-01T02:49:00+09:00,2.9,��,6,��,26.7,91.6,0,0,0,0,0,0,1001.6,1014.9
2022-08-01T02:50:00+09:00,2.9,��,6,��,26.7,91.6,0,0,0,0,0,0,1001.6,1014.9
2022-08-01T02:51:00+09:00,3,��,6,��,26.7,91.6,0,0,0,0,0,0,1001.6,1014.9
2022-08-01T02:52:00+09:00,3,��,6,��,26.7,91.7,0,0,0,0,0,0,1001.6,1014.9
2022-08-01T02:53:00+09:00,3.1,��,6,��,26.7,91.6,0,0,0,0,0,0,1001.7,1015
2022-08-01T02:54:00+09:00,3.1,��,6,��,26.7,91.7,0,0,0,0,0,0,1001.6,1014.9
2022-08-01T02:55:00+09:00,3.1,��,6,��,26.7,91.7,0,0,0,0,0,0,1001.6,1014.9
2022-08-01T02:56:00+09:00,3.1,��,6,��,26.7,91.8,0,0,0,0,0,0,1001.7,1015
2022-08-01T02:57:00+09:00,3,��,5.6,��,26.7,91.9,0,0,0,0,0,0,1001.6,1014.9
2022-08-01T02:58:00+09:00,3,��,5.6,��,26.7,92,0,0,0,0,0,0,1001.7,1015
2022-08-01T02:59:00+09:00,3.1,��,5.6,��,26.6,92,0,0,0,0,0,0,1001.7,1015
2022-08-01T03:00:00+09:00,3.1,��,5.6,��,26.6,92,0,0,0,0,0,0,1001.7,1015
2022-08-01T03:01:00+09:00,3,��,4.8,��쐼,26.6,92.1,0,0,0,0,0,0,1001.7,1015
2022-08-01T03:02:00+09:00,3.1,��,6.4,��쐼,26.7,92.2,0,0,0,0,0,0,1001.6,1014.9
2022-08-01T03:03:00+09:00,3.3,��,6.4,��쐼,26.7,92.2,0,0,0,0,0,0,1001.6,1014.9
2022-08-01T03:04:00+09:00,3.2,��,6.4,��쐼,26.7,92.1,0,0,0,0,0,0,1001.7,1015
2022-08-01T03:05:00+09:00,3.3,��,6.4,��쐼,26.7,92,0,0,0,0,0,0,1001.6,1014.9
2022-08-01T03:06:00+09:00,3.3,��,6.4,��쐼,26.7,91.9,0,0,0,0,0,0,1001.6,1014.9
2022-08-01T03:07:00+09:00,3.2,��,6.4,��쐼,26.7,91.9,0,0,0,0,0,0,1001.6,1014.9
2022-08-01T03:08:00+09:00,3.3,��,6.4,��쐼,26.7,91.9,0,0,0,0,0,0,1001.6,1014.9
2022-08-01T03:09:00+09:00,3.3,��,6.4,��쐼,26.6,91.9,0,0,0,0,0,0,1001.6,1014.9
2022-08-01T03:10:00+09:00,3.2,��,6.4,��쐼,26.6,92.1,0,0,0,0,0,0,1001.6,1014.9
2022-08-01T03:11:00+09:00,3.2,��,6.4,��쐼,26.6,92.3,0,0,0,0,0,0,1001.6,1014.9
2022-08-01T03:12:00+09:00,2.9,��,6.1,��쐼,26.6,92.3,0,0,0,0,0,0,1001.6,1014.9
2022-08-01T03:13:00+09:00,2.6,��,5.9,��,26.6,92.3,0,0,0,0,0,0,1001.6,1014.9
2022-08-01T03:14:00+09:00,2.6,��,5.9,��,26.6,92.2,0,0,0,0,0,0,1001.6,1014.9
2022-08-01T03:15:00+09:00,2.5,��,5.7,��,26.6,92.3,0,0,0,0,0,0,1001.6,1014.9
2022-08-01T03:16:00+09:00,2.4,��,5.7,��,26.6,92.3,0,0,0,0,0,0,1001.6,1014.9
2022-08-01T03:17:00+09:00,2.4,��,5.7,��,26.6,92.4,0,0,0,0,0,0,1001.6,1014.9
2022-08-01T03:18:00+09:00,2.4,��,5.7,��,26.6,92.4,0,0,0,0,0,0,1001.6,1014.9
2022-08-01T03:19:00+09:00,2.3,��,5.7,��,26.6,92.3,0,0,0,0,0,0,1001.6,1014.9
2022-08-01T03:20:00+09:00,2.4,��,6.1,��쐼,26.7,92.3,0,0,0,0,0,0,1001.6,1014.9
2022-08-01T03:21:00+09:00,2.5,��,6.1,��쐼,26.7,92.2,0,0,0,0,0,0,1001.6,1014.9
2022-08-01T03:22:00+09:00,2.7,��,6.1,��쐼,26.7,91.8,0,0,0,0,0,0,1001.6,1014.9
2022-08-01T03:23:00+09:00,2.8,��,6.1,��쐼,26.7,91.5,0,0,0,0,0,0,1001.6,1014.9
2022-08-01T03:24:00+09:00,2.7,��,6.1,��쐼,26.8,91.4,0,0,0,0,0,0,1001.6,1014.9
2022-08-01T03:25:00+09:00,2.6,��,6.1,��쐼,26.7,91.4,0,0,0,0,0,0,1001.6,1014.9
2022-08-01T03:26:00+09:00,2.6,��,6.1,��쐼,26.7,91.4,0,0,0,0,0,0,1001.6,1014.9
2022-08-01T03:27:00+09:00,2.6,��,6.1,��쐼,26.6,91.4,0,0,0,0,0,0,1001.6,1014.9
2022-08-01T03:28:00+09:00,2.5,��,6.1,��쐼,26.6,91.6,0,0,0,0,0,0,1001.6,1014.9
2022-08-01T03:29:00+09:00,2.3,��,6.1,��쐼,26.6,92,0,0,0,0,0,0,1001.6,1014.9
2022-08-01T03:30:00+09:00,2.2,��,6,��쐼,26.6,92.1,0,0,0,0,0,0,1001.6,1014.9
2022-08-01T03:31:00+09:00,2.1,��,5.1,��쐼,26.6,92.3,0,0,0,0,0,0,1001.6,1014.9
2022-08-01T03:32:00+09:00,2,��,4.1,��,26.7,92.4,0,0,0,0,0,0,1001.6,1014.9
2022-08-01T03:33:00+09:00,1.9,��,4.1,��,26.6,92.2,0,0,0,0,0,0,1001.6,1014.9
2022-08-01T03:34:00+09:00,1.9,��,4.1,��,26.7,92,0,0,0,0,0,0,1001.5,1014.8
2022-08-01T03:35:00+09:00,1.9,��,4.1,��,26.7,92,0,0,0,0,0,0,1001.6,1014.9
2022-08-01T03:36:00+09:00,1.9,��,3.8,��,26.7,92,0,0,0,0,0,0,1001.6,1014.9
2022-08-01T03:37:00+09:00,1.8,��,3.7,��쓌,26.7,92,0,0,0,0,0,0,1001.6,1014.9
2022-08-01T03:38:00+09:00,1.7,��,3.7,��쓌,26.7,91.8,0,0,0,0,0,0,1001.6,1014.9
2022-08-01T03:39:00+09:00,1.8,��,4.5,��쓌,26.7,91.7,0,0,0,0,0,0,1001.5,1014.8
2022-08-01T03:40:00+09:00,1.8,��,4.5,��쓌,26.7,91.6,0,0,0,0,0,0,1001.6,1014.9
2022-08-01T03:41:00+09:00,1.8,��,4.5,��쓌,26.7,91.7,0,0,0,0,0,0,1001.5,1014.8
2022-08-01T03:42:00+09:00,1.9,��,4.5,��쓌,26.7,91.7,0,0,0,0,0,0,1001.6,1014.9
2022-08-01T03:43:00+09:00,1.9,��,4.5,��쓌,26.7,91.7,0,0,0,0,0,0,1001.6,1014.9
2022-08-01T03:44:00+09:00,2,��,4.5,��쓌,26.7,91.6,0,0,0,0,0,0,1001.6,1014.9
2022-08-01T03:45:00+09:00,2.2,��,4.6,��,26.7,91.7,0,0,0,0,0,0,1001.6,1014.9
2022-08-01T03:46:00+09:00,2.3,��,4.6,��,26.7,91.7,0,0,0,0,0,0,1001.6,1014.9
2022-08-01T03:47:00+09:00,2.4,��,4.6,��,26.6,91.7,0,0,0,0,0,0,1001.6,1014.9
2022-08-01T03:48:00+09:00,2.5,��,4.6,��,26.6,91.7,0,0,0,0,0,0,1001.6,1014.9
2022-08-01T03:49:00+09:00,2.4,��,4.6,��,26.6,91.8,0,0,0,0,0,0,1001.6,1014.9
2022-08-01T03:50:00+09:00,2.4,��,4.6,��,26.6,92,0,0,0,0,0,0,1001.6,1014.9
2022-08-01T03:51:00+09:00,2.3,��,4.6,��,26.6,92.2,0,0,0,0,0,0,1001.5,1014.8
2022-08-01T03:52:00+09:00,2.2,��,4.6,��,26.6,92.1,0,0,0,0,0,0,1001.6,1014.9
2022-08-01T03:53:00+09:00,2.2,��,4.6,��,26.6,92,0,0,0,0,0,0,1001.6,1014.9
2022-08-01T03:54:00+09:00,2.1,��,4.6,��,26.5,91.8,0,0,0,0,0,0,1001.5,1014.8
2022-08-01T03:55:00+09:00,2.1,��,3.8,��,26.5,91.9,0,0,0,0,0,0,1001.5,1014.8
2022-08-01T03:56:00+09:00,2,��,3.7,��,26.5,92.1,0,0,0,0,0,0,1001.5,1014.8
2022-08-01T03:57:00+09:00,2.1,��,4.3,��,26.6,92.4,0,0,0,0,0,0,1001.5,1014.8
2022-08-01T03:58:00+09:00,2.2,��,4.3,��,26.6,92.3,0,0,0,0,0,0,1001.5,1014.8
2022-08-01T03:59:00+09:00,2.2,��,4.3,��,26.6,92.2,0,0,0,0,0,0,1001.5,1014.8
2022-08-01T04:00:00+09:00,2.3,��,4.3,��,26.5,92.2,0,0,0,0,0,0,1001.5,1014.8
2022-08-01T04:01:00+09:00,2.4,��,4.5,��쓌,26.6,92.3,0,0,0,0,0,0,1001.5,1014.8
2022-08-01T04:02:00+09:00,2.6,��,6.5,��쐼,26.6,92.2,0,0,0,0,0,0,1001.5,1014.8
2022-08-01T04:03:00+09:00,2.8,��,6.5,��쐼,26.6,92.2,0,0,0,0,0,0,1001.5,1014.8
2022-08-01T04:04:00+09:00,2.9,��,6.5,��쐼,26.6,92.1,0,0,0,0,0,0,1001.5,1014.8
2022-08-01T04:05:00+09:00,3,��,6.5,��쐼,26.6,91.9,0,0,0,0,0,0,1001.4,1014.7
2022-08-01T04:06:00+09:00,3,��,6.5,��쐼,26.7,91.8,0,0,0,0,0,0,1001.5,1014.8
2022-08-01T04:07:00+09:00,3.1,��,6.5,��쐼,26.7,91.7,0,0,0,0,0,0,1001.4,1014.7
2022-08-01T04:08:00+09:00,3,��,6.5,��쐼,26.7,91.5,0,0,0,0,0,0,1001.4,1014.7
2022-08-01T04:09:00+09:00,3,��,6.5,��쐼,26.7,91.4,0,0,0,0,0,0,1001.4,1014.7
2022-08-01T04:10:00+09:00,3.1,��,6.5,��쐼,26.7,91.2,0,0,0,0,0,0,1001.4,1014.7
2022-08-01T04:11:00+09:00,3.2,��,6.5,��쐼,26.7,91.1,0,0,0,0,0,0,1001.4,1014.7
2022-08-01T04:12:00+09:00,3.1,��,5.5,��,26.7,91.2,0,0,0,0,0,0,1001.4,1014.7
2022-08-01T04:13:00+09:00,3,��,5.5,��,26.7,91.2,0,0,0,0,0,0,1001.4,1014.7
2022-08-01T04:14:00+09:00,3,��,5.5,��,26.7,91.2,0,0,0,0,0,0,1001.4,1014.7
2022-08-01T04:15:00+09:00,2.8,��,5.5,��,26.7,91.1,0,0,0,0,0,0,1001.4,1014.7
2022-08-01T04:16:00+09:00,2.8,��,6.1,��쐼,26.7,91.1,0,0,0,0,0,0,1001.4,1014.7
2022-08-01T04:17:00+09:00,2.9,��,6.1,��쐼,26.7,91,0,0,0,0,0,0,1001.4,1014.7
2022-08-01T04:18:00+09:00,3,��,6.1,��쐼,26.7,91,0,0,0,0,0,0,1001.4,1014.7
2022-08-01T04:19:00+09:00,3.1,��,6.1,��쐼,26.7,90.9,0,0,0,0,0,0,1001.4,1014.7
2022-08-01T04:20:00+09:00,3.2,��,6.1,��쐼,26.7,90.9,0,0,0,0,0,0,1001.5,1014.8
2022-08-01T04:21:00+09:00,3.2,��,6.1,��쐼,26.7,90.8,0,0,0,0,0,0,1001.4,1014.7
2022-08-01T04:22:00+09:00,3.2,��,6.1,��쐼,26.7,90.7,0,0,0,0,0,0,1001.4,1014.7
2022-08-01T04:23:00+09:00,3.3,��,6.1,��쐼,26.8,90.8,0,0,0,0,0,0,1001.4,1014.7
2022-08-01T04:24:00+09:00,3.5,��,6.1,��쐼,26.8,90.7,0,0,0,0,0,0,1001.4,1014.7
2022-08-01T04:25:00+09:00,3.6,��,6.1,��쐼,26.8,90.7,0,0,0,0,0,0,1001.4,1014.7
2022-08-01T04:26:00+09:00,3.6,��,6.1,��쐼,26.7,90.6,0,0,0,0,0,0,1001.4,1014.7
2022-08-01T04:27:00+09:00,3.6,��,5.4,��쐼,26.7,90.6,0,0,0,0,0,0,1001.4,1014.7
2022-08-01T04:28:00+09:00,3.7,��,6.2,��,26.8,90.5,0,0,0,0,0,0,1001.4,1014.7
2022-08-01T04:29:00+09:00,3.9,��,6.2,��,26.8,90.4,0,0,0,0,0,0,1001.4,1014.7
2022-08-01T04:30:00+09:00,3.9,��,6.2,��,26.8,90.2,0,0,0,0,0,0,1001.3,1014.6
2022-08-01T04:31:00+09:00,4.1,��,6.2,��,26.8,90.1,0,0,0,0,0,0,1001.3,1014.6
2022-08-01T04:32:00+09:00,4.3,��,6.9,��,26.8,90.1,0,0,0,0,0,0,1001.3,1014.6
2022-08-01T04:33:00+09:00,4.3,��,6.9,��,26.8,90,0,0,0,0,0,0,1001.4,1014.7
2022-08-01T04:34:00+09:00,4.2,��,6.9,��,26.8,90.1,0,0,0,0,0,0,1001.3,1014.6
2022-08-01T04:35:00+09:00,4.2,��쐼,6.9,��,26.8,90,0,0,0,0,0,0,1001.4,1014.7
2022-08-01T04:36:00+09:00,4.3,��쐼,6.9,��,26.7,89.9,0,0,0,0,0,0,1001.4,1014.7
2022-08-01T04:37:00+09:00,4.2,��쐼,6.9,��,26.7,90.1,0,0,0,0,0,0,1001.4,1014.7
2022-08-01T04:38:00+09:00,4,��쐼,6.9,��,26.7,90.3,0,0,0,0,0,0,1001.3,1014.6
2022-08-01T04:39:00+09:00,3.9,��,6.9,��,26.7,90.4,0,0,0,0,0,0,1001.4,1014.7
2022-08-01T04:40:00+09:00,3.8,��쐼,6.9,��,26.7,90.4,0,0,0,0,0,0,1001.4,1014.7
2022-08-01T04:41:00+09:00,3.6,��쐼,6.9,��,26.7,90.5,0,0,0,0,0,0,1001.4,1014.7
2022-08-01T04:42:00+09:00,3.4,��,5.4,��쐼,26.7,90.2,0,0,0,0,0,0,1001.4,1014.7
2022-08-01T04:43:00+09:00,3.3,��,5.4,��쐼,26.7,90.1,0,0,0,0,0,0,1001.4,1014.7
2022-08-01T04:44:00+09:00,3.2,��,5.1,��쐼,26.7,90.3,0,0,0,0,0,0,1001.4,1014.7
2022-08-01T04:45:00+09:00,3.2,��,4.9,��쐼,26.7,90.3,0,0,0,0,0,0,1001.4,1014.7
2022-08-01T04:46:00+09:00,3.1,��,4.7,��,26.6,90.4,0,0,0,0,0,0,1001.4,1014.7
2022-08-01T04:47:00+09:00,3.1,��,4.7,��,26.7,90.6,0,0,0,0,0,0,1001.4,1014.7
2022-08-01T04:48:00+09:00,3.1,��,4.7,��,26.7,90.7,0,0,0,0,0,0,1001.4,1014.7
2022-08-01T04:49:00+09:00,3.1,��,4.7,��,26.6,90.6,0,0,0,0,0,0,1001.4,1014.7
2022-08-01T04:50:00+09:00,3,��,4.6,��쐼,26.7,90.6,0,0,0,0,0,0,1001.4,1014.7
2022-08-01T04:51:00+09:00,3,��,4.6,��쐼,26.6,90.5,0,0,0,0,0,0,1001.4,1014.7
2022-08-01T04:52:00+09:00,2.9,��,4.6,��쐼,26.6,90.5,0,0,0,0,0,0,1001.4,1014.7
2022-08-01T04:53:00+09:00,2.9,��,4.6,��쐼,26.6,90.5,0,0,0,0,0,0,1001.4,1014.7
2022-08-01T04:54:00+09:00,2.9,��,4.6,��쐼,26.6,90.5,0,0,0,0,0,0,1001.5,1014.8
2022-08-01T04:55:00+09:00,2.8,��,4.6,��쐼,26.6,90.8,0,0,0,0,0,0,1001.5,1014.8
2022-08-01T04:56:00+09:00,2.8,��,4.6,��쐼,26.6,91,0,0,0,0,0,0,1001.5,1014.8
2022-08-01T04:57:00+09:00,2.9,��,4.6,��쐼,26.6,90.9,0,0,0,0,0,0,1001.5,1014.8
2022-08-01T04:58:00+09:00,2.8,��,4.6,��쐼,26.6,90.7,0,0,0,0,0,0,1001.5,1014.8
2022-08-01T04:59:00+09:00,2.9,��,5.1,��,26.6,90.6,0,0,0,0,0,0,1001.5,1014.8
2022-08-01T05:00:00+09:00,3.1,��,6.8,��쐼,26.6,90.7,0,0,0,0,0,0,1001.4,1014.7
2022-08-01T05:01:00+09:00,3.2,��,6.8,��쐼,26.7,90.6,0,0,0,0,0,0,1001.5,1014.8
2022-08-01T05:02:00+09:00,3.3,��,6.8,��쐼,26.6,90.4,0,0,0,0,0,0,1001.5,1014.8
2022-08-01T05:03:00+09:00,3.4,��,6.8,��쐼,26.6,90.4,0,0,0,0,0,0,1001.5,1014.8
2022-08-01T05:04:00+09:00,3.4,��,6.8,��쐼,26.6,90.5,0,0,0,0,0,0,1001.5,1014.8
2022-08-01T05:05:00+09:00,3.4,��,6.8,��쐼,26.5,90.6,0,0,0,0,0,0,1001.5,1014.8
2022-08-01T05:06:00+09:00,3.4,��,6.8,��쐼,26.5,90.8,0,0,0,0,0,0,1001.4,1014.7
2022-08-01T05:07:00+09:00,3.4,��,6.8,��쐼,26.6,90.9,0,0,0,0,0,0,1001.4,1014.7
2022-08-01T05:08:00+09:00,3.3,��,6.8,��쐼,26.5,90.9,0,0,0,0,0,0,1001.4,1014.7
2022-08-01T05:09:00+09:00,3.1,��,6.8,��쐼,26.5,90.9,0,0,0,0,0,0,1001.5,1014.8
2022-08-01T05:10:00+09:00,2.8,��,4.7,��쐼,26.5,91.1,0,0,0,0,0,0,1001.4,1014.7
2022-08-01T05:11:00+09:00,2.7,��,4.6,��,26.4,91.2,0,0,0,0,0,0,1001.5,1014.8
2022-08-01T05:12:00+09:00,2.6,��,4.2,��,26.4,91.4,0,0,0,0,0,0,1001.4,1014.7
2022-08-01T05:13:00+09:00,2.6,��,4.2,��,26.4,91.7,0,0,0,0,0,0,1001.5,1014.8